Weather in Tum'yumuchash

Russia / Mari El Republic     56°49′51″N   48°46′22″E
temp.,
°C
wind,
m/s
gust,
m/s
humid.,
%
clouds,
%
prec.,
mm/h
press.,
hPa
HPBL,
m
28 february, sun
sun2800:00−19n499895 0.0 1007169
03:00−20n499960 0.0 1008162
06:00−21n4910091 0.0 1009150
09:00−18n579584 0.0 1010239
12:00−15n469381 0.0 1011317
15:00−14n589387 0.0 1012427
18:00−17n379898 0.0 1014119
21:00−19n339995 0.1 101634
1 march, mon
mon100:00−21n33980 0.0 101829
03:00−22n33970 0.0 102027
06:00−23n23970 0.0 102121
09:00−19nw12920 0.0 1021110
12:00−14w238819 0.0 1020284
15:00−11wsw359253 0.0 1019374
18:00−12sw4897100 0.0 1016244
21:00−12ssw5997100 0.1 1014241
2 march, tue
tue200:00−8ssw61295100 0.9 1009443
03:00−5sw71395100 2.6 1005582
06:00−3sw61297100 1.6 1000540
09:000w61099100 3.6 999673
12:000w61010099 0.4 997707
15:000wnw7119997 0.9 997740
18:00−1wnw51098100 1.2 998529
21:00−2wnw51097100 1.9 999441
3 march, wed
wed300:00−4nw5109696 0.3 1000331
03:00−9wnw489897 0.4 1001155
06:00−8nw41096100 0.2 1002300
09:00−7nw5994100 0.3 1004431
12:00−6nw599096 0.0 1005467
15:00−5wnw599074 0.1 1005809
18:00−6wnw51093100 0.1 1006565
21:00−6wnw5109299 0.3 1007667
4 march, thu
thu400:00−8wsw51195100 0.2 1005396
03:00−8wsw4896100 0.5 1004274
06:00−9sw489695 0.1 1003258
09:00−7ssw6109597 0.4 1000402
12:00−4ssw81495100 0.6 995793
15:00−2sw91596100 1.7 991999
18:00−1wsw91694100 1.3 9891085
21:00−4w81680100 2.1 989808